Location: Berg
(48.4333°N, 13.9167°E)
Time: 05:12:19
(UTC+00:00)

SPOT 5 - Pass Details

Date: 18 September 2020
Orbit: 623 x 815 km, 98.3° (Epoch: 29 October)

Event Time Altitude Azimuth Distance (km) Brightness Sun altitude
Exits shadow 20:40:12 46° 352° (N) 1,055 3.9 -31.9°
Drops below altitude 10° 20:43:54 10° 347° (NNW) 2,391 6.2 -32.3°
Sets 20:46:17 0° 347° (NNW) 3,340 7.2 -32.5°
